CDT,Max TemperatureF,Mean TemperatureF,Min TemperatureF,Max Dew PointF,MeanDew PointF,Min DewpointF,Max Humidity, Mean Humidity, Min Humidity, Max Sea Level PressureIn, Mean Sea Level PressureIn, Min Sea Level PressureIn, Max VisibilityMiles, Mean VisibilityMiles, Min VisibilityMiles, Max Wind SpeedMPH, Mean Wind SpeedMPH, Max Gust SpeedMPH,PrecipitationIn, CloudCover, Events, WindDirDegrees
2013-6-1,86,78,69,74,70,64,94,80,65,30.00,29.94,29.87,10,9,1,31,9,40,1.14,6,Rain-Thunderstorm,148
2013-6-2,80,74,67,70,68,64,97,84,71,29.99,29.95,29.91,10,10,4,16,5,18,T,6,Rain-Thunderstorm,278
2013-6-3,83,73,63,66,63,60,93,72,51,30.03,29.97,29.93,10,10,10,13,6,18,0.00,2,,13
2013-6-4,89,76,62,71,66,61,100,74,47,30.00,29.95,29.89,10,9,5,8,3,16,0.00,1,,50
2013-6-5,90,81,71,77,71,66,93,82,70,29.95,29.90,29.81,10,9,2,22,5,28,0.06,2,Rain-Thunderstorm,186
2013-6-6,84,76,68,72,69,64,100,83,65,29.87,29.83,29.76,10,8,2,31,5,40,0.05,5,Rain-Thunderstorm,328
2013-6-7,83,73,62,68,63,58,90,68,45,29.92,29.87,29.81,10,9,6,15,7,18,0.00,4,,340
2013-6-8,86,72,57,65,59,53,97,67,37,30.01,29.96,29.93,10,10,2,14,4,17,0.00,1,,133
2013-6-9,89,79,68,73,70,65,90,71,52,29.97,29.92,29.84,10,10,7,15,8,20,T,3,Thunderstorm,197
2013-6-10,92,81,70,71,69,67,97,73,49,29.99,29.96,29.94,10,10,10,16,8,22,0.00,0,,222
2013-6-11,94,83,71,75,72,69,94,70,46,30.08,30.03,29.98,10,10,9,15,8,18,0.00,0,,205
2013-6-12,95,85,74,75,73,69,94,70,46,30.09,30.03,29.98,10,10,8,15,8,22,0.00,1,,217
2013-6-13,95,85,74,76,74,67,93,75,56,30.02,29.95,29.81,10,10,8,18,10,24,0.00,1,,253
2013-6-14,92,80,68,67,62,55,90,60,30,30.03,29.98,29.95,10,10,8,16,6,23,0.00,1,,58
2013-6-15,91,78,65,67,63,59,93,66,38,30.07,30.02,29.97,10,10,10,12,4,15,0.00,0,,122
2013-6-16,93,82,70,74,70,66,93,70,46,30.05,30.00,29.97,10,10,8,25,5,33,T,0,Thunderstorm,227
2013-6-17,90,81,71,74,72,70,94,78,61,29.99,29.94,29.88,10,10,6,18,6,23,T,3,Rain-Thunderstorm,187
2013-6-18,86,79,71,74,71,67,94,78,61,29.99,29.95,29.88,10,10,9,14,5,,0.00,3,,323
2013-6-19,91,79,66,70,66,63,100,71,41,30.04,30.01,29.96,10,8,2,12,5,15,0.00,1,,91
2013-6-20,93,81,69,72,68,66,97,71,44,30.18,30.08,30.03,10,9,5,12,5,17,0.00,1,,111
2013-6-21,94,83,71,73,69,64,93,67,41,30.16,30.11,30.06,10,9,4,13,4,21,0.00,1,,120
2013-6-22,94,83,72,72,69,66,93,67,41,30.13,30.07,30.01,10,10,7,14,6,24,0.00,0,,140
2013-6-23,93,83,72,73,70,66,93,70,47,30.10,30.05,30.01,10,10,8,13,5,16,T,2,Rain,154
2013-6-24,94,84,73,74,72,71,93,71,49,30.13,30.07,30.02,10,10,8,15,7,22,0.00,1,,168
2013-6-25,93,83,73,74,71,66,93,67,41,30.10,30.04,29.97,10,10,7,16,8,23,0.00,0,,190
2013-6-26,94,85,75,75,73,69,88,67,46,30.04,29.98,29.91,10,10,10,18,11,22,0.00,1,,214
2013-6-27,97,87,77,76,72,63,85,67,48,30.01,29.93,29.85,10,10,9,29,9,41,0.00,2,Rain-Thunderstorm,255
2013-6-28,97,86,74,75,72,66,94,70,45,29.90,29.82,29.74,10,10,10,24,8,31,0.00,1,Thunderstorm,253
2013-6-29,93,82,70,73,65,59,94,64,34,29.80,29.77,29.72,10,10,10,16,7,24,0.00,1,,313
2013-6-30,86,77,68,69,64,60,84,64,44,29.86,29.80,29.74,10,10,10,17,7,20,0.00,2,,338